date,time,SUV Intensity [MED/Hr],UV Index,Daily total [MED],Since Last [MED]
03/05/2023,00:01:19,0.000,0.0,0.0,0.0
03/05/2023,00:02:19,0.000,0.0,0.0,0.0
03/05/2023,00:03:19,-0.001,0.0,0.0,0.0
03/05/2023,00:04:19,0.001,0.0,0.0,0.0
03/05/2023,00:05:19,0.000,0.0,0.0,0.0
03/05/2023,00:06:19,0.000,0.0,0.0,0.0
03/05/2023,00:07:19,0.000,0.0,0.0,0.0
03/05/2023,00:08:19,-0.001,0.0,0.0,0.0
03/05/2023,00:09:19,0.000,0.0,0.0,0.0
03/05/2023,00:10:19,0.000,0.0,0.0,0.0
03/05/2023,00:11:19,-0.000,0.0,0.0,0.0
03/05/2023,00:12:20,0.001,0.0,0.0,0.0
03/05/2023,00:13:20,-0.000,0.0,0.0,0.0
03/05/2023,00:14:18,0.001,0.0,0.0,0.0
03/05/2023,00:15:19,0.000,0.0,0.0,0.0
03/05/2023,00:16:19,-0.001,0.0,0.0,0.0
03/05/2023,00:17:19,0.000,0.0,0.0,0.0
03/05/2023,00:18:19,0.000,0.0,0.0,0.0
03/05/2023,00:19:19,0.001,0.0,0.0,0.0
03/05/2023,00:20:19,0.000,0.0,0.0,0.0
03/05/2023,00:21:19,0.000,0.0,0.0,0.0
03/05/2023,00:22:20,0.001,0.0,0.0,0.0
03/05/2023,00:23:19,-0.000,0.0,0.0,0.0
03/05/2023,00:24:20,-0.000,0.0,0.0,0.0
03/05/2023,00:25:19,0.000,0.0,0.0,0.0
03/05/2023,00:26:20,0.001,0.0,0.0,0.0
03/05/2023,00:27:20,0.000,0.0,0.0,0.0
03/05/2023,00:28:19,-0.001,0.0,0.0,0.0
03/05/2023,00:29:19,0.000,0.0,0.0,0.0
03/05/2023,00:30:19,0.000,0.0,0.0,0.0
03/05/2023,00:31:19,0.001,0.0,0.0,0.0
03/05/2023,00:32:19,0.001,0.0,0.0,0.0
03/05/2023,00:33:20,0.001,0.0,0.0,0.0
03/05/2023,00:34:20,0.001,0.0,0.0,0.0
03/05/2023,00:35:19,0.001,0.0,0.0,0.0
03/05/2023,00:36:19,0.001,0.0,0.0,0.0
03/05/2023,00:37:19,0.001,0.0,0.0,0.0
03/05/2023,00:38:19,-0.000,0.0,0.0,0.0
03/05/2023,00:39:19,0.001,0.0,0.0,0.0
03/05/2023,00:40:20,0.001,0.0,0.0,0.0
03/05/2023,00:41:20,0.001,0.0,0.0,0.0
03/05/2023,00:42:19,0.001,0.0,0.0,0.0
03/05/2023,00:43:20,0.001,0.0,0.0,0.0
03/05/2023,00:44:19,0.001,0.0,0.0,0.0
03/05/2023,00:45:19,0.000,0.0,0.0,0.0
03/05/2023,00:46:19,0.001,0.0,0.0,0.0
03/05/2023,00:47:19,0.000,0.0,0.0,0.0
03/05/2023,00:48:19,0.001,0.0,0.0,0.0
03/05/2023,00:49:19,-0.000,0.0,0.0,0.0
03/05/2023,00:50:19,0.001,0.0,0.0,0.0
03/05/2023,00:51:19,0.001,0.0,0.0,0.0
03/05/2023,00:52:20,0.001,0.0,0.0,0.0
03/05/2023,00:53:19,0.001,0.0,0.0,0.0
03/05/2023,00:54:19,0.000,0.0,0.0,0.0
03/05/2023,00:55:19,0.001,0.0,0.0,0.0
03/05/2023,00:56:19,0.001,0.0,0.0,0.0
03/05/2023,00:57:19,-0.000,0.0,0.0,0.0
03/05/2023,00:58:19,-0.000,0.0,0.0,0.0
03/05/2023,00:59:20,0.001,0.0,0.0,0.0
03/05/2023,01:00:19,0.001,0.0,0.0,0.0
03/05/2023,01:01:20,0.001,0.0,0.0,0.0
03/05/2023,01:02:19,0.001,0.0,0.0,0.0
03/05/2023,01:03:19,0.001,0.0,0.0,0.0
03/05/2023,01:04:20,0.000,0.0,0.0,0.0
03/05/2023,01:05:19,0.001,0.0,0.0,0.0
03/05/2023,01:06:19,0.001,0.0,0.0,0.0
03/05/2023,01:07:19,0.001,0.0,0.0,0.0
03/05/2023,01:08:20,0.001,0.0,0.0,0.0
03/05/2023,01:09:20,0.001,0.0,0.0,0.0
03/05/2023,01:10:19,0.000,0.0,0.0,0.0
03/05/2023,01:11:19,0.001,0.0,0.0,0.0
03/05/2023,01:12:19,0.001,0.0,0.0,0.0
03/05/2023,01:13:19,0.001,0.0,0.0,0.0
03/05/2023,01:14:19,0.001,0.0,0.0,0.0
03/05/2023,01:15:19,0.001,0.0,0.0,0.0
03/05/2023,01:16:19,0.001,0.0,0.0,0.0
03/05/2023,01:17:20,0.001,0.0,0.0,0.0
03/05/2023,01:18:19,0.001,0.0,0.0,0.0
03/05/2023,01:19:20,0.002,0.0,0.0,0.0
03/05/2023,01:20:20,0.001,0.0,0.0,0.0
03/05/2023,01:21:19,0.001,0.0,0.0,0.0
03/05/2023,01:22:19,0.001,0.0,0.0,0.0
03/05/2023,01:23:20,0.001,0.0,0.0,0.0
03/05/2023,01:24:19,0.001,0.0,0.0,0.0
03/05/2023,01:25:19,0.001,0.0,0.0,0.0
03/05/2023,01:26:19,-0.000,0.0,0.0,0.0
03/05/2023,01:27:19,0.001,0.0,0.0,0.0
03/05/2023,01:28:19,0.001,0.0,0.0,0.0
03/05/2023,01:29:19,0.001,0.0,0.0,0.0
03/05/2023,01:30:19,0.001,0.0,0.0,0.0
03/05/2023,01:31:19,0.000,0.0,0.0,0.0
03/05/2023,01:32:19,0.001,0.0,0.0,0.0
03/05/2023,01:33:19,0.001,0.0,0.0,0.0
03/05/2023,01:34:20,0.000,0.0,0.0,0.0
03/05/2023,01:35:20,0.001,0.0,0.0,0.0
03/05/2023,01:36:19,0.001,0.0,0.0,0.0
03/05/2023,01:37:19,0.000,0.0,0.0,0.0
03/05/2023,01:38:19,0.001,0.0,0.0,0.0
03/05/2023,01:39:19,0.001,0.0,0.0,0.0
03/05/2023,01:40:19,0.001,0.0,0.0,0.0
03/05/2023,01:41:20,0.001,0.0,0.0,0.0
03/05/2023,01:42:19,0.001,0.0,0.0,0.0
03/05/2023,01:43:19,0.000,0.0,0.0,0.0
03/05/2023,01:44:19,0.001,0.0,0.0,0.0
03/05/2023,01:45:19,0.001,0.0,0.0,0.0
03/05/2023,01:46:20,0.000,0.0,0.0,0.0
03/05/2023,01:47:19,0.001,0.0,0.0,0.0
03/05/2023,01:48:19,0.001,0.0,0.0,0.0
03/05/2023,01:49:19,0.001,0.0,0.0,0.0
03/05/2023,01:50:19,0.001,0.0,0.0,0.0
03/05/2023,01:51:19,0.001,0.0,0.0,0.0
03/05/2023,01:52:19,0.001,0.0,0.0,0.0
03/05/2023,01:53:19,0.001,0.0,0.0,0.0
03/05/2023,01:54:19,0.000,0.0,0.0,0.0
03/05/2023,01:55:19,0.001,0.0,0.0,0.0
03/05/2023,01:56:19,0.001,0.0,0.0,0.0
03/05/2023,01:57:19,0.001,0.0,0.0,0.0
03/05/2023,01:58:19,0.001,0.0,0.0,0.0
03/05/2023,01:59:20,0.001,0.0,0.0,0.0
03/05/2023,02:00:19,0.001,0.0,0.0,0.0
03/05/2023,02:01:19,0.000,0.0,0.0,0.0
03/05/2023,02:02:19,0.001,0.0,0.0,0.0
03/05/2023,02:03:19,0.001,0.0,0.0,0.0
03/05/2023,02:04:20,0.001,0.0,0.0,0.0
03/05/2023,02:05:20,0.001,0.0,0.0,0.0
03/05/2023,02:06:20,0.001,0.0,0.0,0.0
03/05/2023,02:07:20,0.001,0.0,0.0,0.0
03/05/2023,02:08:19,0.001,0.0,0.0,0.0
03/05/2023,02:09:19,0.001,0.0,0.0,0.0
03/05/2023,02:10:19,0.001,0.0,0.0,0.0
03/05/2023,02:11:20,0.001,0.0,0.0,0.0
03/05/2023,02:12:20,0.001,0.0,0.0,0.0
03/05/2023,02:13:19,0.001,0.0,0.0,0.0
03/05/2023,02:14:19,0.001,0.0,0.0,0.0
03/05/2023,02:15:19,0.001,0.0,0.0,0.0
03/05/2023,02:16:19,0.001,0.0,0.0,0.0
03/05/2023,02:17:19,0.001,0.0,0.0,0.0
03/05/2023,02:18:20,0.001,0.0,0.0,0.0
03/05/2023,02:19:20,0.001,0.0,0.0,0.0
03/05/2023,02:20:20,0.000,0.0,0.0,0.0
03/05/2023,02:21:19,0.001,0.0,0.0,0.0
03/05/2023,02:22:19,0.001,0.0,0.0,0.0
03/05/2023,02:23:19,0.001,0.0,0.0,0.0
03/05/2023,02:24:19,0.001,0.0,0.0,0.0
03/05/2023,02:25:19,0.001,0.0,0.0,0.0
03/05/2023,02:26:19,0.001,0.0,0.0,0.0
03/05/2023,02:27:19,0.001,0.0,0.0,0.0
03/05/2023,02:28:19,0.000,0.0,0.0,0.0
03/05/2023,02:29:19,0.001,0.0,0.0,0.0
03/05/2023,02:30:19,0.001,0.0,0.0,0.0
03/05/2023,02:31:19,0.001,0.0,0.0,0.0
03/05/2023,02:32:19,0.001,0.0,0.0,0.0
03/05/2023,02:33:20,0.001,0.0,0.0,0.0
03/05/2023,02:34:20,0.001,0.0,0.0,0.0
03/05/2023,02:35:20,0.001,0.0,0.0,0.0
03/05/2023,02:36:20,0.001,0.0,0.0,0.0
03/05/2023,02:37:19,0.001,0.0,0.0,0.0
03/05/2023,02:38:19,0.001,0.0,0.0,0.0
03/05/2023,02:39:19,0.001,0.0,0.0,0.0
03/05/2023,02:40:20,0.001,0.0,0.0,0.0
03/05/2023,02:41:19,0.001,0.0,0.0,0.0
03/05/2023,02:42:20,0.001,0.0,0.0,0.0
03/05/2023,02:43:20,0.000,0.0,0.0,0.0
03/05/2023,02:44:19,0.001,0.0,0.0,0.0
03/05/2023,02:45:19,0.000,0.0,0.0,0.0
03/05/2023,02:46:19,0.001,0.0,0.0,0.0
03/05/2023,02:47:19,0.001,0.0,0.0,0.0
03/05/2023,02:48:20,0.001,0.0,0.0,0.0
03/05/2023,02:49:19,0.001,0.0,0.0,0.0
03/05/2023,02:50:20,0.001,0.0,0.0,0.0
03/05/2023,02:51:20,0.001,0.0,0.0,0.0
03/05/2023,02:52:19,0.001,0.0,0.0,0.0
03/05/2023,02:53:19,0.001,0.0,0.0,0.0
03/05/2023,02:54:19,0.001,0.0,0.0,0.0
03/05/2023,02:55:19,0.001,0.0,0.0,0.0
03/05/2023,02:56:19,0.001,0.0,0.0,0.0
03/05/2023,02:57:20,0.001,0.0,0.0,0.0
03/05/2023,02:58:19,0.001,0.0,0.0,0.0
03/05/2023,02:59:19,0.001,0.0,0.0,0.0
03/05/2023,03:00:19,0.002,0.0,0.0,0.0
03/05/2023,03:01:19,0.001,0.0,0.0,0.0
03/05/2023,03:02:19,0.001,0.0,0.0,0.0
03/05/2023,03:03:19,0.001,0.0,0.0,0.0
03/05/2023,03:04:19,0.001,0.0,0.0,0.0
03/05/2023,03:05:19,0.001,0.0,0.0,0.0
03/05/2023,03:06:20,0.001,0.0,0.0,0.0
03/05/2023,03:07:20,0.001,0.0,0.0,0.0
03/05/2023,03:08:20,0.001,0.0,0.0,0.0
03/05/2023,03:09:20,0.001,0.0,0.0,0.0
03/05/2023,03:10:19,0.001,0.0,0.0,0.0
03/05/2023,03:11:19,0.001,0.0,0.0,0.0
03/05/2023,03:12:20,0.001,0.0,0.0,0.0
03/05/2023,03:13:20,0.001,0.0,0.0,0.0
03/05/2023,03:14:20,0.001,0.0,0.0,0.0
03/05/2023,03:15:20,0.001,0.0,0.0,0.0
03/05/2023,03:16:19,0.001,0.0,0.0,0.0
03/05/2023,03:17:19,0.001,0.0,0.0,0.0
03/05/2023,03:18:19,0.001,0.0,0.0,0.0
03/05/2023,03:19:19,0.001,0.0,0.0,0.0
03/05/2023,03:20:19,0.001,0.0,0.0,0.0
03/05/2023,03:21:19,0.001,0.0,0.0,0.0
03/05/2023,03:22:20,0.001,0.0,0.0,0.0
03/05/2023,03:23:20,0.001,0.0,0.0,0.0
03/05/2023,03:24:20,0.001,0.0,0.0,0.0
03/05/2023,03:25:20,0.000,0.0,0.0,0.0
03/05/2023,03:26:20,0.001,0.0,0.0,0.0
03/05/2023,03:27:19,0.001,0.0,0.0,0.0
03/05/2023,03:28:19,0.001,0.0,0.0,0.0
03/05/2023,03:29:19,0.001,0.0,0.0,0.0
03/05/2023,03:30:20,0.001,0.0,0.0,0.0
03/05/2023,03:31:19,0.001,0.0,0.0,0.0
03/05/2023,03:32:19,0.001,0.0,0.0,0.0
03/05/2023,03:33:19,0.001,0.0,0.0,0.0
03/05/2023,03:34:20,0.001,0.0,0.0,0.0
03/05/2023,03:35:20,0.001,0.0,0.0,0.0
03/05/2023,03:36:20,0.001,0.0,0.0,0.0
03/05/2023,03:37:19,0.001,0.0,0.0,0.0
03/05/2023,03:38:19,0.002,0.0,0.0,0.0
03/05/2023,03:39:19,0.001,0.0,0.0,0.0
03/05/2023,03:40:19,0.001,0.0,0.0,0.0
03/05/2023,03:41:19,0.001,0.0,0.0,0.0
03/05/2023,03:42:20,0.001,0.0,0.0,0.0
03/05/2023,03:43:20,0.001,0.0,0.0,0.0
03/05/2023,03:44:19,0.001,0.0,0.0,0.0
03/05/2023,03:45:19,0.001,0.0,0.0,0.0
03/05/2023,03:46:19,0.001,0.0,0.0,0.0
03/05/2023,03:47:19,0.001,0.0,0.0,0.0
03/05/2023,03:48:19,0.002,0.0,0.0,0.0
03/05/2023,03:49:19,0.002,0.0,0.0,0.0
03/05/2023,03:50:19,0.002,0.0,0.0,0.0
03/05/2023,03:51:20,0.002,0.0,0.0,0.0
03/05/2023,03:52:20,0.002,0.0,0.0,0.0
03/05/2023,03:53:20,0.002,0.0,0.0,0.0
03/05/2023,03:54:19,0.001,0.0,0.0,0.0
03/05/2023,03:55:20,0.001,0.0,0.0,0.0
03/05/2023,03:56:19,0.003,0.0,0.0,0.0
03/05/2023,03:57:21,0.002,0.0,0.0,0.0
03/05/2023,03:58:20,0.001,0.0,0.0,0.0
03/05/2023,03:59:19,0.002,0.0,0.0,0.0
03/05/2023,04:00:20,0.002,0.0,0.0,0.0
03/05/2023,04:01:20,0.002,0.0,0.0,0.0
03/05/2023,04:02:20,0.002,0.0,0.0,0.0
03/05/2023,04:03:20,0.002,0.0,0.0,0.0
03/05/2023,04:04:19,0.002,0.0,0.0,0.0
03/05/2023,04:05:19,0.002,0.0,0.0,0.0
03/05/2023,04:06:19,0.002,0.0,0.0,0.0
03/05/2023,04:07:19,0.001,0.0,0.0,0.0
03/05/2023,04:08:20,0.002,0.0,0.0,0.0
03/05/2023,04:09:20,0.001,0.0,0.0,0.0
03/05/2023,04:10:19,0.003,0.0,0.0,0.0
03/05/2023,04:11:20,0.002,0.0,0.0,0.0
03/05/2023,04:12:20,0.002,0.0,0.0,0.0
03/05/2023,04:13:20,0.002,0.0,0.0,0.0
03/05/2023,04:14:19,0.002,0.0,0.0,0.0
03/05/2023,04:15:20,0.002,0.0,0.0,0.0
03/05/2023,04:16:20,0.002,0.0,0.0,0.0
03/05/2023,04:17:19,0.002,0.0,0.0,0.0
03/05/2023,04:18:20,0.002,0.0,0.0,0.0
03/05/2023,04:19:20,0.002,0.0,0.0,0.0
03/05/2023,04:20:19,0.002,0.0,0.0,0.0
03/05/2023,04:21:19,0.002,0.0,0.0,0.0
03/05/2023,04:22:19,0.002,0.0,0.0,0.0
03/05/2023,04:23:19,0.003,0.0,0.0,0.0
03/05/2023,04:24:20,0.003,0.0,0.0,0.0
03/05/2023,04:25:20,0.003,0.0,0.0,0.0
03/05/2023,04:26:19,0.002,0.0,0.0,0.0
03/05/2023,04:27:19,0.002,0.0,0.0,0.0
03/05/2023,04:28:19,0.003,0.0,0.0,0.0
03/05/2023,04:29:19,0.002,0.0,0.0,0.0
03/05/2023,04:30:20,0.004,0.0,0.0,0.0
03/05/2023,04:31:19,0.005,0.0,0.0,0.0
03/05/2023,04:32:20,0.004,0.0,0.0,0.0
03/05/2023,04:33:19,0.004,0.0,0.0,0.0
03/05/2023,04:34:19,0.004,0.0,0.0,0.0
03/05/2023,04:35:19,0.003,0.0,0.0,0.0
03/05/2023,04:36:20,0.003,0.0,0.0,0.0
03/05/2023,04:37:19,0.005,0.0,0.0,0.0
03/05/2023,04:38:20,0.005,0.0,0.0,0.0
03/05/2023,04:39:20,0.005,0.0,0.0,0.0
03/05/2023,04:40:20,0.005,0.0,0.0,0.0
03/05/2023,04:41:20,0.005,0.0,0.0,0.0
03/05/2023,04:42:19,0.005,0.0,0.0,0.0
03/05/2023,04:43:19,0.006,0.0,0.0,0.0
03/05/2023,04:44:19,0.006,0.0,0.0,0.0
03/05/2023,04:45:20,0.006,0.0,0.0,0.0
03/05/2023,04:46:20,0.006,0.0,0.0,0.0
03/05/2023,04:47:20,0.007,0.0,0.0,0.0
03/05/2023,04:48:20,0.007,0.0,0.0,0.0
03/05/2023,04:49:20,0.007,0.0,0.0,0.0
03/05/2023,04:50:19,0.007,0.0,0.001,0.001
03/05/2023,04:51:20,0.007,0.0,0.001,0.0
03/05/2023,04:52:20,0.008,0.0,0.001,0.0
03/05/2023,04:53:20,0.008,0.0,0.001,0.0
03/05/2023,04:54:20,0.009,0.0,0.001,0.0
03/05/2023,04:55:19,0.008,0.0,0.001,0.0
03/05/2023,04:56:19,0.009,0.0,0.001,0.0
03/05/2023,04:57:19,0.010,0.0,0.002,0.001
03/05/2023,04:58:20,0.010,0.0,0.002,0.0
03/05/2023,04:59:20,0.010,0.0,0.002,0.0
03/05/2023,05:00:19,0.011,0.0,0.002,0.0
03/05/2023,05:01:19,0.010,0.0,0.002,0.0
03/05/2023,05:02:20,0.012,0.0,0.002,0.0
03/05/2023,05:03:20,0.012,0.0,0.003,0.001
03/05/2023,05:04:19,0.013,0.0,0.003,0.0
03/05/2023,05:05:20,0.012,0.0,0.003,0.0
03/05/2023,05:06:20,0.013,0.0,0.003,0.0
03/05/2023,05:07:20,0.014,0.0,0.004,0.001
03/05/2023,05:08:19,0.014,0.0,0.004,0.0
03/05/2023,05:09:20,0.015,0.0,0.004,0.0
03/05/2023,05:10:19,0.015,0.0,0.004,0.0
03/05/2023,05:11:20,0.016,0.0,0.005,0.001
03/05/2023,05:12:20,0.017,0.0,0.005,0.0
03/05/2023,05:13:20,0.017,0.0,0.005,0.0
03/05/2023,05:14:20,0.018,0.0,0.005,0.0
03/05/2023,05:15:19,0.018,0.0,0.006,0.001
03/05/2023,05:16:20,0.020,0.0,0.006,0.0
03/05/2023,05:17:20,0.021,0.0,0.006,0.0
03/05/2023,05:18:20,0.021,0.0,0.007,0.001
03/05/2023,05:19:20,0.020,0.0,0.007,0.0
03/05/2023,05:20:20,0.021,0.0,0.007,0.0
03/05/2023,05:21:19,0.022,0.0,0.008,0.001
03/05/2023,05:22:20,0.022,0.0,0.008,0.0
03/05/2023,05:23:20,0.024,0.0,0.008,0.0
03/05/2023,05:24:19,0.025,0.0,0.009,0.001
03/05/2023,05:25:19,0.025,0.0,0.009,0.0
03/05/2023,05:26:19,0.026,0.0,0.01,0.001
03/05/2023,05:27:19,0.027,0.0,0.01,0.0
03/05/2023,05:28:19,0.027,0.0,0.011,0.001
03/05/2023,05:29:20,0.028,0.0,0.011,0.0
03/05/2023,05:30:20,0.030,0.0,0.012,0.001
03/05/2023,05:31:20,0.030,0.0,0.012,0.0
03/05/2023,05:32:20,0.031,0.0,0.013,0.001
03/05/2023,05:33:19,0.032,0.0,0.013,0.0
03/05/2023,05:34:19,0.033,0.0,0.014,0.001
03/05/2023,05:35:19,0.034,0.0,0.014,0.0
03/05/2023,05:36:20,0.035,0.0,0.015,0.001
03/05/2023,05:37:20,0.035,0.0,0.015,0.0
03/05/2023,05:38:20,0.037,0.0,0.016,0.001
03/05/2023,05:39:20,0.037,0.0,0.017,0.001
03/05/2023,05:40:20,0.039,0.0,0.017,0.0
03/05/2023,05:41:20,0.040,0.0,0.018,0.001
03/05/2023,05:42:20,0.042,0.0,0.019,0.001
03/05/2023,05:43:19,0.042,0.0,0.019,0.0
03/05/2023,05:44:19,0.043,0.0,0.02,0.001
03/05/2023,05:45:19,0.045,0.0,0.021,0.001
03/05/2023,05:46:20,0.046,0.0,0.021,0.0
03/05/2023,05:47:21,0.048,0.0,0.022,0.001
03/05/2023,05:48:19,0.049,0.0,0.023,0.001
03/05/2023,05:49:20,0.050,0.0,0.024,0.001
03/05/2023,05:50:20,0.052,0.0,0.025,0.001
03/05/2023,05:51:20,0.053,0.0,0.026,0.001
03/05/2023,05:52:19,0.054,0.0,0.026,0.0
03/05/2023,05:53:20,0.055,0.0,0.027,0.001
03/05/2023,05:54:20,0.057,0.0,0.028,0.001
03/05/2023,05:55:20,0.059,0.0,0.029,0.001
03/05/2023,05:56:20,0.060,0.0,0.03,0.001
03/05/2023,05:57:20,0.061,0.0,0.031,0.001
03/05/2023,05:58:20,0.063,0.0,0.032,0.001
03/05/2023,05:59:20,0.065,0.0,0.033,0.001
03/05/2023,06:00:20,0.066,0.0,0.034,0.001
03/05/2023,06:01:20,0.067,0.0,0.036,0.002
03/05/2023,06:02:20,0.069,0.0,0.037,0.001
03/05/2023,06:03:19,0.071,0.0,0.038,0.001
03/05/2023,06:04:19,0.073,0.0,0.039,0.001
03/05/2023,06:05:19,0.075,0.0,0.04,0.001
03/05/2023,06:06:20,0.077,0.0,0.042,0.002
03/05/2023,06:07:20,0.078,0.0,0.043,0.001
03/05/2023,06:08:20,0.079,0.0,0.044,0.001
03/05/2023,06:09:20,0.082,0.0,0.046,0.002
03/05/2023,06:10:20,0.084,0.0,0.047,0.001
03/05/2023,06:11:20,0.086,0.0,0.048,0.001
03/05/2023,06:12:20,0.088,0.0,0.05,0.002
03/05/2023,06:13:20,0.090,0.0,0.051,0.001
03/05/2023,06:14:20,0.093,0.0,0.053,0.002
03/05/2023,06:15:20,0.096,0.0,0.054,0.001
03/05/2023,06:16:20,0.100,0.0,0.056,0.002
03/05/2023,06:17:20,0.102,0.0,0.058,0.002
03/05/2023,06:18:19,0.104,0.0,0.059,0.001
03/05/2023,06:19:19,0.107,0.0,0.061,0.002
03/05/2023,06:20:20,0.109,0.0,0.063,0.002
03/05/2023,06:21:20,0.111,0.0,0.065,0.002
03/05/2023,06:22:20,0.114,0.0,0.067,0.002
03/05/2023,06:23:20,0.117,0.0,0.069,0.002
03/05/2023,06:24:19,0.118,0.0,0.071,0.002
03/05/2023,06:25:20,0.122,0.0,0.073,0.002
03/05/2023,06:26:20,0.125,0.0,0.075,0.002
03/05/2023,06:27:20,0.126,0.0,0.077,0.002
03/05/2023,06:28:20,0.130,0.0,0.079,0.002
03/05/2023,06:29:19,0.133,0.0,0.081,0.002
03/05/2023,06:30:20,0.135,0.0,0.083,0.002
03/05/2023,06:31:20,0.138,0.0,0.086,0.003
03/05/2023,06:32:20,0.141,0.0,0.088,0.002
03/05/2023,06:33:20,0.145,0.0,0.09,0.002
03/05/2023,06:34:20,0.148,0.0,0.093,0.003
03/05/2023,06:35:20,0.150,0.0,0.095,0.002
03/05/2023,06:36:20,0.152,0.0,0.098,0.003
03/05/2023,06:37:20,0.155,0.0,0.1,0.002
03/05/2023,06:38:20,0.159,0.0,0.103,0.003
03/05/2023,06:39:20,0.162,0.0,0.106,0.003
03/05/2023,06:40:20,0.167,0.0,0.108,0.002
03/05/2023,06:41:20,0.169,0.0,0.111,0.003
03/05/2023,06:42:19,0.172,0.0,0.114,0.003
03/05/2023,06:43:19,0.175,0.0,0.117,0.003
03/05/2023,06:44:20,0.180,0.0,0.12,0.003
03/05/2023,06:45:20,0.182,0.0,0.123,0.003
03/05/2023,06:46:20,0.186,0.0,0.126,0.003
03/05/2023,06:47:20,0.189,0.0,0.129,0.003
03/05/2023,06:48:20,0.192,0.0,0.132,0.003
03/05/2023,06:49:20,0.196,0.0,0.135,0.003
03/05/2023,06:50:20,0.199,0.0,0.139,0.004
03/05/2023,06:51:20,0.203,0.0,0.142,0.003
03/05/2023,06:52:20,0.206,0.0,0.146,0.004
03/05/2023,06:53:20,0.210,0.0,0.149,0.003
03/05/2023,06:54:20,0.214,0.0,0.153,0.004
03/05/2023,06:55:20,0.217,0.0,0.156,0.003
03/05/2023,06:56:20,0.223,1.0,0.16,0.004
03/05/2023,06:57:20,0.226,1.0,0.164,0.004
03/05/2023,06:58:20,0.230,1.0,0.167,0.003
03/05/2023,06:59:21,0.234,1.0,0.171,0.004
03/05/2023,07:00:21,0.238,1.0,0.175,0.004
03/05/2023,07:01:20,0.241,1.0,0.179,0.004
03/05/2023,07:02:19,0.246,1.0,0.183,0.004
03/05/2023,07:03:20,0.251,1.0,0.187,0.004
03/05/2023,07:04:20,0.255,1.0,0.192,0.005
03/05/2023,07:05:19,0.258,1.0,0.196,0.004
03/05/2023,07:06:19,0.262,1.0,0.2,0.004
03/05/2023,07:07:20,0.268,1.0,0.205,0.005
03/05/2023,07:08:20,0.272,1.0,0.209,0.004
03/05/2023,07:09:19,0.276,1.0,0.214,0.005
03/05/2023,07:10:20,0.279,1.0,0.218,0.004
03/05/2023,07:11:20,0.283,1.0,0.223,0.005
03/05/2023,07:12:20,0.287,1.0,0.228,0.005
03/05/2023,07:13:20,0.291,1.0,0.233,0.005
03/05/2023,07:14:19,0.295,1.0,0.237,0.004
03/05/2023,07:15:20,0.300,1.0,0.242,0.005
03/05/2023,07:16:20,0.304,1.0,0.247,0.005
03/05/2023,07:17:20,0.309,1.0,0.253,0.006
03/05/2023,07:18:20,0.313,1.0,0.258,0.005
03/05/2023,07:19:19,0.317,1.0,0.263,0.005
03/05/2023,07:20:20,0.321,1.0,0.268,0.005
03/05/2023,07:21:20,0.325,1.0,0.274,0.006
03/05/2023,07:22:20,0.331,1.0,0.279,0.005
03/05/2023,07:23:20,0.334,1.0,0.285,0.006
03/05/2023,07:24:18,0.338,1.0,0.29,0.005
03/05/2023,07:25:20,0.342,1.0,0.296,0.006
03/05/2023,07:26:20,0.349,1.0,0.302,0.006
03/05/2023,07:27:20,0.353,1.0,0.307,0.005
03/05/2023,07:28:20,0.359,1.0,0.313,0.006
03/05/2023,07:29:20,0.364,1.0,0.319,0.006
03/05/2023,07:30:20,0.369,1.0,0.326,0.007
03/05/2023,07:31:20,0.374,1.0,0.332,0.006
03/05/2023,07:32:20,0.379,1.0,0.338,0.006
03/05/2023,07:33:20,0.384,1.0,0.344,0.006
03/05/2023,07:34:20,0.386,1.0,0.351,0.007
03/05/2023,07:35:19,0.389,1.0,0.357,0.006
03/05/2023,07:36:20,0.395,1.0,0.364,0.007
03/05/2023,07:37:20,0.396,1.0,0.37,0.006
03/05/2023,07:38:19,0.401,1.0,0.377,0.007
03/05/2023,07:39:19,0.405,1.0,0.384,0.007
03/05/2023,07:40:19,0.406,1.0,0.391,0.007
03/05/2023,07:41:20,0.415,1.0,0.397,0.006
03/05/2023,07:42:20,0.419,1.0,0.404,0.007
03/05/2023,07:43:20,0.426,1.0,0.411,0.007
03/05/2023,07:44:20,0.435,1.0,0.419,0.008
03/05/2023,07:45:20,0.446,1.0,0.426,0.007
03/05/2023,07:46:19,0.453,1.0,0.433,0.007
03/05/2023,07:47:19,0.461,1.0,0.441,0.008
03/05/2023,07:48:19,0.466,1.0,0.449,0.008
03/05/2023,07:49:19,0.473,1.0,0.457,0.008
03/05/2023,07:50:19,0.482,1.0,0.465,0.008
03/05/2023,07:51:20,0.487,1.0,0.473,0.008
03/05/2023,07:52:19,0.494,1.0,0.481,0.008
03/05/2023,07:53:20,0.501,1.0,0.489,0.008
03/05/2023,07:54:20,0.469,1.0,0.497,0.008
03/05/2023,07:55:20,0.481,1.0,0.505,0.008
03/05/2023,07:56:20,0.497,1.0,0.513,0.008
03/05/2023,07:57:20,0.519,1.0,0.522,0.009
03/05/2023,07:58:20,0.534,1.0,0.531,0.009
03/05/2023,07:59:20,0.539,1.0,0.539,0.008
03/05/2023,08:00:19,0.546,1.0,0.549,0.01
03/05/2023,08:01:20,0.551,1.0,0.558,0.009
03/05/2023,08:02:20,0.560,1.0,0.567,0.009
03/05/2023,08:03:20,0.566,1.0,0.576,0.009
03/05/2023,08:04:19,0.572,1.0,0.586,0.01
03/05/2023,08:05:20,0.577,1.0,0.595,0.009
03/05/2023,08:06:20,0.584,1.0,0.605,0.01
03/05/2023,08:07:20,0.589,1.0,0.615,0.01
03/05/2023,08:08:20,0.584,1.0,0.625,0.01
03/05/2023,08:09:20,0.591,1.0,0.634,0.009
03/05/2023,08:10:20,0.614,1.0,0.644,0.01
03/05/2023,08:11:20,0.622,1.0,0.655,0.011
03/05/2023,08:12:20,0.630,1.0,0.665,0.01
03/05/2023,08:13:20,0.637,1.0,0.676,0.011
03/05/2023,08:14:20,0.645,1.0,0.686,0.01
03/05/2023,08:15:19,0.654,2.0,0.697,0.011
03/05/2023,08:16:20,0.657,2.0,0.708,0.011
03/05/2023,08:17:20,0.658,2.0,0.719,0.011
03/05/2023,08:18:19,0.674,2.0,0.73,0.011
03/05/2023,08:19:20,0.682,2.0,0.742,0.012
03/05/2023,08:20:20,0.683,2.0,0.753,0.011
03/05/2023,08:21:20,0.696,2.0,0.764,0.011
03/05/2023,08:22:20,0.701,2.0,0.776,0.012
03/05/2023,08:23:20,0.714,2.0,0.788,0.012
03/05/2023,08:24:20,0.726,2.0,0.8,0.012
03/05/2023,08:25:20,0.735,2.0,0.812,0.012
03/05/2023,08:26:20,0.739,2.0,0.824,0.012
03/05/2023,08:27:20,0.748,2.0,0.837,0.013
03/05/2023,08:28:20,0.755,2.0,0.849,0.012
03/05/2023,08:29:20,0.765,2.0,0.862,0.013
03/05/2023,08:30:19,0.772,2.0,0.875,0.013
03/05/2023,08:31:20,0.781,2.0,0.888,0.013
03/05/2023,08:32:20,0.786,2.0,0.901,0.013
03/05/2023,08:33:20,0.794,2.0,0.914,0.013
03/05/2023,08:34:20,0.803,2.0,0.927,0.013
03/05/2023,08:35:20,0.813,2.0,0.941,0.014
03/05/2023,08:36:20,0.822,2.0,0.954,0.013
03/05/2023,08:37:19,0.828,2.0,0.968,0.014
03/05/2023,08:38:20,0.836,2.0,0.982,0.014
03/05/2023,08:39:20,0.846,2.0,0.996,0.014
03/05/2023,08:40:19,0.848,2.0,1.01,0.014
03/05/2023,08:41:19,0.858,2.0,1.024,0.014
03/05/2023,08:42:20,0.866,2.0,1.039,0.015
03/05/2023,08:43:20,0.871,2.0,1.053,0.014
03/05/2023,08:44:20,0.879,2.0,1.068,0.015
03/05/2023,08:45:19,0.887,2.0,1.082,0.014
03/05/2023,08:46:20,0.893,2.0,1.097,0.015
03/05/2023,08:47:20,0.901,2.0,1.112,0.015
03/05/2023,08:48:20,0.908,2.0,1.127,0.015
03/05/2023,08:49:20,0.913,2.0,1.142,0.015
03/05/2023,08:50:20,0.923,2.0,1.158,0.016
03/05/2023,08:51:21,0.930,2.0,1.173,0.015
03/05/2023,08:52:20,0.936,2.0,1.189,0.016
03/05/2023,08:53:20,0.943,2.0,1.204,0.015
03/05/2023,08:54:20,0.953,2.0,1.22,0.016
03/05/2023,08:55:20,0.964,2.0,1.236,0.016
03/05/2023,08:56:20,0.970,2.0,1.252,0.016
03/05/2023,08:57:20,0.977,2.0,1.269,0.017
03/05/2023,08:58:20,0.986,2.0,1.285,0.016
03/05/2023,08:59:20,0.997,2.0,1.301,0.016
03/05/2023,09:00:21,1.003,2.0,1.319,0.018
03/05/2023,09:01:20,1.010,2.0,1.335,0.016
03/05/2023,09:02:20,1.014,2.0,1.352,0.017
03/05/2023,09:03:20,1.032,2.0,1.369,0.017
03/05/2023,09:04:20,1.032,2.0,1.386,0.017
03/05/2023,09:05:20,1.040,2.0,1.403,0.017
03/05/2023,09:06:20,1.054,2.0,1.421,0.018
03/05/2023,09:07:20,1.061,2.0,1.438,0.017
03/05/2023,09:08:20,1.065,2.0,1.456,0.018
03/05/2023,09:09:20,1.073,2.0,1.474,0.018
03/05/2023,09:10:21,1.077,2.0,1.492,0.018
03/05/2023,09:11:20,1.093,3.0,1.51,0.018
03/05/2023,09:12:20,1.094,3.0,1.528,0.018
03/05/2023,09:13:20,1.110,3.0,1.546,0.018
03/05/2023,09:14:20,1.111,3.0,1.565,0.019
03/05/2023,09:15:20,1.119,3.0,1.584,0.019
03/05/2023,09:16:20,1.135,3.0,1.602,0.018
03/05/2023,09:17:20,1.136,3.0,1.621,0.019
03/05/2023,09:18:20,1.145,3.0,1.64,0.019
03/05/2023,09:19:20,1.143,3.0,1.659,0.019
03/05/2023,09:20:20,1.162,3.0,1.679,0.02
03/05/2023,09:21:20,1.159,3.0,1.698,0.019
03/05/2023,09:22:20,1.156,3.0,1.717,0.019
03/05/2023,09:23:20,1.167,3.0,1.736,0.019
03/05/2023,09:24:20,1.172,3.0,1.756,0.02
03/05/2023,09:25:20,1.183,3.0,1.775,0.019
03/05/2023,09:26:20,1.187,3.0,1.795,0.02
03/05/2023,09:27:20,1.190,3.0,1.815,0.02
03/05/2023,09:28:20,1.176,3.0,1.835,0.02
03/05/2023,09:29:20,1.181,3.0,1.854,0.019
03/05/2023,09:30:20,1.202,3.0,1.874,0.02
03/05/2023,09:31:20,1.209,3.0,1.894,0.02
03/05/2023,09:32:20,1.191,3.0,1.914,0.02
03/05/2023,09:33:23,1.213,3.0,1.935,0.021
03/05/2023,09:34:22,1.237,3.0,1.955,0.02
03/05/2023,09:35:22,1.222,3.0,1.976,0.021
03/05/2023,09:36:20,1.209,3.0,1.995,0.019
03/05/2023,09:37:20,1.194,3.0,2.015,0.02
03/05/2023,09:38:21,1.227,3.0,2.035,0.02
03/05/2023,09:39:20,1.232,3.0,2.056,0.021
03/05/2023,09:40:20,1.249,3.0,2.077,0.021
03/05/2023,09:41:20,1.262,3.0,2.098,0.021
03/05/2023,09:42:20,1.283,3.0,2.119,0.021
03/05/2023,09:43:20,1.278,3.0,2.14,0.021
03/05/2023,09:44:20,1.297,3.0,2.162,0.022
03/05/2023,09:45:21,1.304,3.0,2.183,0.021
03/05/2023,09:46:20,1.318,3.0,2.205,0.022
03/05/2023,09:47:20,1.348,3.0,2.227,0.022
03/05/2023,09:48:20,1.354,3.0,2.25,0.023
03/05/2023,09:49:20,1.356,3.0,2.272,0.022
03/05/2023,09:50:20,1.363,3.0,2.295,0.023
03/05/2023,09:51:20,1.337,3.0,2.318,0.023
03/05/2023,09:52:21,1.355,3.0,2.34,0.022
03/05/2023,09:53:20,1.338,3.0,2.362,0.022
03/05/2023,09:54:20,1.340,3.0,2.385,0.023
03/05/2023,09:55:20,1.357,3.0,2.407,0.022
03/05/2023,09:56:20,1.383,3.0,2.43,0.023
03/05/2023,09:57:20,1.383,3.0,2.453,0.023
03/05/2023,09:58:20,1.367,3.0,2.476,0.023
03/05/2023,09:59:20,1.386,3.0,2.499,0.023